Miscellaneous Local Product
Issued by NWS Hastings, NE

Home | Current Version | Previous Version | Text Only | Print | Product List | Glossary Off
Versions: 1 2 3 4 5 6 7 8 9 10 11 12 13 14 15 16 17 18 19 20 21 22 23 24 25 26 27 28 29 30 31 32 33 34 35 36 37 38 39 40 41 42 43 44 45 46 47 48 49 50

000
AXUS43 KGID 250202
MISGRI

GID CWA HOURLY WEATHER ROUNDUP
NATIONAL WEATHER SERVICE HASTINGS NE
900 PM CDT THU JUL 24 2014

NOTE: "FAIR" INDICATES FEW OR NO CLOUDS BELOW 12,000 FEET WITH NO
SIGNIFICANT WEATHER AND/OR OBSTRUCTIONS TO VISIBILITY.

...SOUTH CENTRAL NEBRASKA...

CITY           SKY/WX    TMP DP  RH WIND       PRES   REMARKS
GRAND ISLAND   MOCLDY    82  68  62 SE17G28   29.84S
HASTINGS       MOCLDY    85  65  51 S13G22    29.85S
KEARNEY        MOCLDY    84  70  61 SE14      29.84S
ORD            CLOUDY    81  69  67 SE10      29.81R
YORK           MOCLDY    77  68  73 SE15      29.88S
AURORA         MOCLDY    81  68  65 SE12G21   29.86S
LEXINGTON      CLOUDY    87  72  61 S17G24    29.82S HX  93
HOLDREGE       MOCLDY    86  69  56 S16       29.83F HX  90
HEBRON         PTCLDY    82  63  52 S10G21    29.89S

...NEBRASKA PANHANDLE...

CITY           SKY/WX    TMP DP  RH WIND       PRES   REMARKS
CHADRON        PTCLDY    88  54  31 S17       29.75F
ALLIANCE       PTCLDY    78  60  53 S13       29.87F
SCOTTSBLUFF    MOCLDY    78  60  53 SE10      29.87F
SIDNEY         PTCLDY    79  53  40 S8        29.94F

...WESTERN AND NORTH CENTRAL NEBRASKA...

CITY           SKY/WX    TMP DP  RH WIND       PRES   REMARKS
VALENTINE      CLOUDY    82  61  48 S16       29.74F
AINSWORTH      CLOUDY    86  69  55 S25       29.77S THUNDER HX  90
ONEILL         MOCLDY    82  65  57 SE21G28   29.80F
BROKEN BOW     CLOUDY    88  70  55 S16G26    29.81R HX  93
IMPERIAL       CLOUDY    80  58  46 NE5       29.90R
NORTH PLATTE   CLOUDY    89  50  26 NW14      29.85R
MCCOOK         CLOUDY    89  55  31 SW7       29.84R

...EASTERN NEBRASKA...

CITY           SKY/WX    TMP DP  RH WIND       PRES   REMARKS
NORFOLK        CLEAR     77  63  61 SE17      29.86S
SO SIOUX CITY  CLEAR     75  62  64 S16G29    29.86F
TEKAMAH        CLEAR     75  61  61 SE18G25   29.90F
COLUMBUS       CLEAR     75  63  64 SE10      29.88F
ALBION         PTCLDY    78  64  60 SE18      29.86S
OMAHA EPPLEY   MOCLDY    76  60  57 SE18      29.93F
OFFUTT AFB     CLEAR     74  62  66 SE17      29.94F
MILLARD        CLEAR     76  62  62 SE14      29.93F
LINCOLN        PTCLDY    81  62  52 SE20      29.93R
NEBRASKA CITY  PTCLDY    73  62  67 SE10G16   29.98S
BEATRICE       CLEAR     79  64  59 SE10      29.93R
FALLS CITY     CLEAR     74  62  66 SE10      29.98R

...NORTHERN KANSAS...

CITY           SKY/WX    TMP DP  RH WIND       PRES   REMARKS
GOODLAND       CLOUDY    88  50  27 S13       29.91R
HILL CITY      CLOUDY    90  70  51 S15G24    29.85S HX  95
NORTON         CLEAR     88  64  45 SE10G18   29.84S
PHILLIPSBURG   CLEAR     90  68  48 SE16G23   29.85R HX  93
SMITH CENTER   CLEAR     86  68  54 S18G26    29.87R
HAYS           MOCLDY    72  66  83 S17       29.89S
RUSSELL        PTCLDY    85  71  63 S16       29.89R HX  90
CONCORDIA      CLEAR     83  68  60 SE14G23   29.91R
SALINA         PTCLDY    87  67  51 S16       29.91S HX  90
TOPEKA         CLEAR     80  63  55 SE10      29.98S



USA.gov is the U.S. government's official web portal to all federal, state and local government web resources and services.